Retour au catalogue

STARLINK-3360

ActifCommunicationsVLEO
NORAD 51149·PAYLOAD·🇺🇸 United States

Lancé Jan 19, 2022 depuis Cape Canaveral Space Force Station

Loading…

Prochains Passages (prochaines 24 heures)

TLE

FraisSource: CelesTrak SupGP

Époque: Sep 15, 2026, 02:08 UTC

1 51149C 22005AX  26258.08937500 -.00007926  00000+0 -23420-3 0  2581
2 51149  53.1571 162.6562 0001476  86.8925 178.0944 15.34389964    14

Suivez STARLINK-3360 en temps réel avec AllMySat

Download on the App Store